| time (UTC) | temp C | wind direction | speed KPH | gust KPH | rain 1hr cm | rain 24hr cm | rain mn cm | humidity % | barometer mb |
| 20260505112050 | 16 | 209 | 1.6 | 3.2 | 0.00 | 0.00 | 0.00 | 72 | 1015.2 |
| 20260505111544 | 16 | 138 | 0.0 | 0.0 | 0.00 | 0.00 | 0.00 | 72 | 1015.1 |
| 20260505111040 | 16 | 258 | 4.8 | 9.7 | 0.00 | 0.00 | 0.00 | 73 | 1015.0 |
| 20260505110537 | 16 | 112 | 0.0 | 0.0 | 0.00 | 0.00 | 0.00 | 73 | 1014.9 |
| 20260505102009 | 16 | 122 | 4.8 | 4.8 | 0.00 | 0.00 | 0.00 | 73 | 1014.3 |
| 20260505101508 | 16 | 105 | 3.2 | 4.8 | 0.00 | 0.00 | 0.00 | 73 | 1014.4 |
| 20260505101004 | 16 | 103 | 0.0 | 1.6 | 0.00 | 0.00 | 0.00 | 73 | 1014.3 |
| 20260505100501 | 16 | 104 | 1.6 | 1.6 | 0.00 | 0.00 | 0.00 | 74 | 1014.4 |
| 20260505095957 | 16 | 97 | 1.6 | 1.6 | 0.00 | 0.00 | 0.00 | 73 | 1014.2 |
| 20260505095454 | 16 | 111 | 0.0 | 1.6 | 0.00 | 0.00 | 0.00 | 73 | 1014.2 |
| 20260505094950 | 16 | 85 | 0.0 | 1.6 | 0.00 | 0.00 | 0.00 | 73 | 1014.0 |
| 20260505094447 | 16 | 82 | 3.2 | 4.8 | 0.00 | 0.00 | 0.00 | 73 | 1014.0 |
| 20260505093943 | 16 | 154 | 1.6 | 1.6 | 0.00 | 0.00 | 0.00 | 72 | 1014.1 |
| 20260505093440 | 16 | 346 | 6.4 | 11.3 | 0.00 | 0.00 | 0.00 | 72 | 1014.1 |
| 20260505092937 | 16 | 167 | 3.2 | 3.2 | 0.00 | 0.00 | 0.00 | 72 | 1014.1 |
| 20260505092435 | 16 | 108 | 0.0 | 1.6 | 0.00 | 0.00 | 0.00 | 72 | 1013.9 |
| 20260505091932 | 16 | 114 | 1.6 | 1.6 | 0.00 | 0.00 | 0.00 | 72 | 1014.1 |
| 20260505091430 | 16 | 107 | 0.0 | 0.0 | 0.00 | 0.00 | 0.00 | 71 | 1013.9 |
| 20260505090928 | 16 | 79 | 1.6 | 1.6 | 0.00 | 0.00 | 0.00 | 71 | 1013.9 |
| 20260505090426 | 16 | 96 | 3.2 | 3.2 | 0.00 | 0.00 | 0.00 | 71 | 1014.1 |
| 20260505085922 | 16 | 100 | 1.6 | 3.2 | 0.00 | 0.00 | 0.00 | 71 | 1013.8 |
| 20260505085420 | 16 | 104 | 0.0 | 1.6 | 0.00 | 0.00 | 0.00 | 72 | 1014.2 |
| 20260505084918 | 16 | 104 | 1.6 | 1.6 | 0.00 | 0.00 | 0.00 | 71 | 1014.0 |
| 20260505084416 | 16 | 81 | 3.2 | 4.8 | 0.00 | 0.00 | 0.00 | 71 | 1013.9 |
| 20260505083914 | 16 | 104 | 0.0 | 1.6 | 0.00 | 0.00 | 0.00 | 71 | 1014.3 |
| 20260505083411 | 16 | 121 | 0.0 | 1.6 | 0.00 | 0.00 | 0.00 | 71 | 1014.0 |
| 20260505082907 | 16 | 249 | 4.8 | 8.0 | 0.00 | 0.00 | 0.00 | 71 | 1014.2 |
| 20260505082403 | 16 | 62 | 3.2 | 3.2 | 0.00 | 0.00 | 0.00 | 72 | 1014.0 |
| 20260505081900 | 16 | 153 | 1.6 | 3.2 | 0.00 | 0.00 | 0.00 | 71 | 1014.2 |
| 20260505081357 | 16 | 122 | 1.6 | 1.6 | 0.00 | 0.00 | 0.00 | 71 | 1014.4 |
| 20260505080854 | 17 | 121 | 0.0 | 1.6 | 0.00 | 0.00 | 0.00 | 70 | 1014.1 |
| 20260505080350 | 17 | 46 | 4.8 | 8.0 | 0.00 | 0.00 | 0.00 | 70 | 1014.1 |
| 20260505075845 | 17 | 93 | 0.0 | 1.6 | 0.00 | 0.00 | 0.00 | 70 | 1014.0 |
| 20260505075342 | 17 | 134 | 1.6 | 1.6 | 0.00 | 0.00 | 0.00 | 70 | 1014.0 |
| 20260505074840 | 17 | 117 | 1.6 | 3.2 | 0.00 | 0.00 | 0.00 | 69 | 1014.1 |
| 20260505074337 | 17 | 155 | 4.8 | 4.8 | 0.00 | 0.00 | 0.00 | 69 | 1014.1 |
| 20260505073834 | 17 | 201 | 4.8 | 4.8 | 0.00 | 0.00 | 0.00 | 70 | 1013.9 |
| 20260505073332 | 17 | 248 | 1.6 | 3.2 | 0.00 | 0.00 | 0.00 | 69 | 1013.8 |
| 20260505072829 | 17 | 101 | 0.0 | 1.6 | 0.00 | 0.00 | 0.00 | 69 | 1013.7 |
| 20260505072325 | 17 | 116 | 1.6 | 3.2 | 0.00 | 0.00 | 0.00 | 69 | 1013.9 |
| 20260505071821 | 17 | 91 | 1.6 | 1.6 | 0.00 | 0.00 | 0.00 | 69 | 1013.8 |
| 20260505071317 | 17 | 112 | 0.0 | 0.0 | 0.00 | 0.00 | 0.00 | 69 | 1013.9 |
| 20260505070816 | 17 | 107 | 0.0 | 0.0 | 0.00 | 0.00 | 0.00 | 68 | 1013.8 |
| 20260505070312 | 17 | 284 | 4.8 | 9.7 | 0.00 | 0.00 | 0.00 | 68 | 1013.9 |
| 20260505065807 | 17 | 196 | 1.6 | 3.2 | 0.00 | 0.00 | 0.00 | 68 | 1013.4 |
| 20260505065304 | 17 | 28 | 3.2 | 3.2 | 0.00 | 0.00 | 0.00 | 68 | 1013.7 |
| 20260505064801 | 17 | 119 | 0.0 | 1.6 | 0.00 | 0.00 | 0.00 | 68 | 1013.6 |
| 20260505064258 | 17 | 95 | 1.6 | 1.6 | 0.00 | 0.00 | 0.00 | 68 | 1013.5 |
| 20260505063756 | 17 | 108 | 1.6 | 1.6 | 0.00 | 0.00 | 0.00 | 68 | 1013.4 |
| 20260505063252 | 17 | 124 | 3.2 | 3.2 | 0.00 | 0.00 | 0.00 | 68 | 1013.6 |
| 20260505062749 | 17 | 112 | 1.6 | 3.2 | 0.00 | 0.00 | 0.00 | 68 | 1013.5 |
| 20260505062246 | 17 | 104 | 4.8 | 4.8 | 0.00 | 0.00 | 0.00 | 68 | 1013.5 |
| 20260505061743 | 17 | 356 | 3.2 | 3.2 | 0.00 | 0.00 | 0.00 | 68 | 1013.6 |
| 20260505061241 | 17 | 210 | 4.8 | 8.0 | 0.00 | 0.00 | 0.00 | 68 | 1013.5 |
| 20260505060738 | 17 | 292 | 3.2 | 8.0 | 0.00 | 0.00 | 0.00 | 68 | 1013.5 |
| 20260505060235 | 18 | 104 | 1.6 | 1.6 | 0.00 | 0.00 | 0.00 | 68 | 1013.5 |
| 20260505055730 | 18 | 108 | 1.6 | 1.6 | 0.00 | 0.00 | 0.00 | 67 | 1013.4 |
| 20260505055227 | 18 | 30 | 3.2 | 3.2 | 0.00 | 0.00 | 0.00 | 67 | 1013.5 |
| 20260505054724 | 18 | 171 | 4.8 | 8.0 | 0.00 | 0.00 | 0.00 | 67 | 1013.6 |
| 20260505054222 | 18 | 316 | 4.8 | 8.0 | 0.00 | 0.00 | 0.00 | 67 | 1013.5 |
| 20260505053720 | 18 | 147 | 4.8 | 4.8 | 0.00 | 0.00 | 0.00 | 67 | 1013.7 |
| 20260505053216 | 18 | 342 | 3.2 | 4.8 | 0.00 | 0.00 | 0.00 | 68 | 1013.5 |
| 20260505052714 | 18 | 338 | 3.2 | 8.0 | 0.00 | 0.00 | 0.00 | 67 | 1013.7 |
| 20260505052210 | 18 | 95 | 1.6 | 3.2 | 0.00 | 0.00 | 0.00 | 68 | 1013.6 |
| 20260505051708 | 18 | 154 | 3.2 | 4.8 | 0.00 | 0.00 | 0.00 | 68 | 1013.7 |
| 20260505051206 | 18 | 74 | 3.2 | 3.2 | 0.00 | 0.00 | 0.00 | 67 | 1013.7 |
| 20260505050703 | 18 | 120 | 6.4 | 8.0 | 0.00 | 0.00 | 0.00 | 68 | 1013.6 |
| 20260505050201 | 18 | 123 | 1.6 | 1.6 | 0.00 | 0.00 | 0.00 | 68 | 1013.7 |
| 20260505041631 | 18 | 95 | 3.2 | 4.8 | 0.00 | 0.00 | 0.00 | 66 | 1013.8 |
| 20260505041128 | 18 | 117 | 3.2 | 3.2 | 0.00 | 0.00 | 0.00 | 67 | 1013.6 |
| 20260505040625 | 18 | 90 | 3.2 | 4.8 | 0.00 | 0.00 | 0.00 | 67 | 1013.7 |
| 20260505040122 | 18 | 156 | 4.8 | 9.7 | 0.00 | 0.00 | 0.00 | 67 | 1013.7 |
| 20260505035618 | 18 | 270 | 3.2 | 3.2 | 0.00 | 0.03 | 0.03 | 67 | 1013.7 |
| 20260505035115 | 18 | 90 | 0.0 | 1.6 | 0.00 | 0.03 | 0.03 | 66 | 1013.7 |
| 20260505034612 | 19 | 144 | 6.4 | 8.0 | 0.00 | 0.03 | 0.03 | 66 | 1013.6 |
| 20260505034109 | 19 | 110 | 1.6 | 1.6 | 0.00 | 0.03 | 0.03 | 67 | 1013.7 |
| 20260505033605 | 19 | 105 | 0.0 | 0.0 | 0.00 | 0.03 | 0.03 | 67 | 1013.6 |
| 20260505033104 | 19 | 106 | 3.2 | 3.2 | 0.00 | 0.03 | 0.03 | 67 | 1013.5 |
| 20260505032601 | 19 | 85 | 8.0 | 12.9 | 0.00 | 0.03 | 0.03 | 67 | 1013.5 |
| 20260505032057 | 19 | 221 | 3.2 | 3.2 | 0.00 | 0.03 | 0.03 | 67 | 1013.5 |
| 20260505031555 | 19 | 118 | 1.6 | 1.6 | 0.00 | 0.03 | 0.03 | 68 | 1013.5 |
| 20260505031051 | 19 | 117 | 3.2 | 3.2 | 0.00 | 0.03 | 0.03 | 67 | 1013.6 |
| 20260505030548 | 19 | 112 | 1.6 | 3.2 | 0.00 | 0.03 | 0.03 | 67 | 1013.4 |
| 20260505030044 | 19 | 31 | 4.8 | 8.0 | 0.00 | 0.03 | 0.03 | 68 | 1013.2 |
| 20260505025540 | 20 | 129 | 3.2 | 3.2 | 0.00 | 0.03 | 0.03 | 68 | 1013.3 |
| 20260505025039 | 20 | 134 | 8.0 | 9.7 | 0.00 | 0.03 | 0.03 | 68 | 1013.4 |
| 20260505024536 | 20 | 171 | 6.4 | 9.7 | 0.00 | 0.03 | 0.03 | 68 | 1013.3 |
| 20260505024033 | 20 | 93 | 3.2 | 3.2 | 0.00 | 0.03 | 0.03 | 69 | 1013.5 |
| 20260505023530 | 20 | 179 | 1.6 | 1.6 | 0.00 | 0.03 | 0.03 | 68 | 1013.1 |
| 20260505023027 | 20 | 98 | 4.8 | 4.8 | 0.00 | 0.03 | 0.03 | 68 | 1013.1 |
| 20260505022525 | 20 | 109 | 1.6 | 4.8 | 0.00 | 0.03 | 0.03 | 68 | 1013.2 |
| 20260505022022 | 20 | 157 | 8.0 | 9.7 | 0.00 | 0.03 | 0.03 | 68 | 1013.1 |
| 20260505021518 | 20 | 95 | 0.0 | 0.0 | 0.00 | 0.03 | 0.03 | 67 | 1013.1 |
| 20260505021014 | 20 | 110 | 3.2 | 8.0 | 0.00 | 0.03 | 0.03 | 67 | 1013.1 |
| 20260505020514 | 20 | 121 | 1.6 | 1.6 | 0.00 | 0.03 | 0.03 | 66 | 1013.2 |
| 20260505020012 | 20 | 109 | 1.6 | 3.2 | 0.00 | 0.03 | 0.03 | 65 | 1012.8 |
| 20260505015509 | 20 | 131 | 3.2 | 3.2 | 0.00 | 0.03 | 0.03 | 64 | 1012.7 |
| 20260505015006 | 20 | 134 | 1.6 | 1.6 | 0.00 | 0.03 | 0.03 | 62 | 1012.7 |
| 20260505014503 | 20 | 90 | 0.0 | 0.0 | 0.00 | 0.03 | 0.03 | 59 | 1012.9 |
| 20260505014000 | 20 | 132 | 1.6 | 3.2 | 0.00 | 0.03 | 0.03 | 58 | 1012.8 |
| 20260505013457 | 19 | 109 | 0.0 | 0.0 | 0.00 | 0.03 | 0.03 | 58 | 1012.8 |
| 20260505012954 | 19 | 116 | 0.0 | 1.6 | 0.00 | 0.03 | 0.03 | 55 | 1012.8 |
| 20260505012452 | 19 | 113 | 0.0 | 0.0 | 0.00 | 0.03 | 0.03 | 58 | 1012.9 |
| 20260505011949 | 19 | 111 | 1.6 | 1.6 | 0.00 | 0.03 | 0.03 | 53 | 1012.7 |
| 20260505011445 | 19 | 106 | 0.0 | 0.0 | 0.00 | 0.03 | 0.03 | 56 | 1012.7 |
| 20260505010942 | 20 | 101 | 0.0 | 1.6 | 0.00 | 0.03 | 0.03 | 54 | 1012.6 |
| 20260505010437 | 20 | 101 | 0.0 | 0.0 | 0.00 | 0.03 | 0.03 | 56 | 1012.6 |
| 20260505005934 | 20 | 101 | 0.0 | 0.0 | 0.00 | 0.03 | 0.03 | 53 | 1012.6 |
| 20260505005431 | 20 | 109 | 0.0 | 0.0 | 0.00 | 0.03 | 0.03 | 53 | 1012.5 |
| 20260505004928 | 20 | 110 | 0.0 | 0.0 | 0.00 | 0.03 | 0.03 | 51 | 1012.5 |
| 20260505004425 | 20 | 113 | 1.6 | 1.6 | 0.00 | 0.03 | 0.03 | 56 | 1012.3 |
| 20260505003922 | 20 | 112 | 0.0 | 0.0 | 0.00 | 0.03 | 0.03 | 49 | 1012.4 |
| 20260505003419 | 21 | 112 | 0.0 | 0.0 | 0.00 | 0.03 | 0.03 | 48 | 1012.3 |
| 20260505002915 | 21 | 110 | 1.6 | 1.6 | 0.00 | 0.03 | 0.03 | 50 | 1012.2 |
| 20260505002412 | 21 | 109 | 0.0 | 0.0 | 0.00 | 0.03 | 0.03 | 46 | 1012.2 |
| 20260505001910 | 22 | 120 | 1.6 | 1.6 | 0.00 | 0.03 | 0.03 | 47 | 1012.1 |
| 20260505001407 | 22 | 125 | 1.6 | 1.6 | 0.00 | 0.03 | 0.03 | 45 | 1011.9 |
| 20260505000904 | 22 | 108 | 1.6 | 1.6 | 0.00 | 0.03 | 0.03 | 46 | 1012.1 |
| 20260505000402 | 22 | 113 | 1.6 | 1.6 | 0.00 | 0.03 | 0.03 | 45 | 1011.9 |
| 20260504235858 | 22 | 169 | 1.6 | 1.6 | 0.00 | 0.03 | 0.03 | 44 | 1012.0 |
| 20260504235355 | 22 | 121 | 1.6 | 1.6 | 0.00 | 0.03 | 0.03 | 44 | 1012.0 |
| 20260504234852 | 22 | 277 | 3.2 | 4.8 | 0.00 | 0.03 | 0.03 | 44 | 1012.1 |
| 20260504234350 | 23 | 98 | 1.6 | 3.2 | 0.00 | 0.03 | 0.03 | 45 | 1011.9 |
| 20260504233846 | 23 | 106 | 0.0 | 1.6 | 0.00 | 0.03 | 0.03 | 43 | 1011.6 |
| 20260504233341 | 23 | 71 | 3.2 | 3.2 | 0.00 | 0.03 | 0.03 | 42 | 1011.8 |
| 20260504232838 | 23 | 104 | 0.0 | 0.0 | 0.00 | 0.03 | 0.03 | 42 | 1011.6 |
| 20260504232336 | 23 | 172 | 1.6 | 3.2 | 0.00 | 0.03 | 0.03 | 41 | 1011.4 |
| 20260504231832 | 23 | 121 | 3.2 | 3.2 | 0.00 | 0.03 | 0.03 | 41 | 1011.5 |
| 20260504231329 | 23 | 99 | 0.0 | 1.6 | 0.00 | 0.03 | 0.03 | 41 | 1011.7 |
| 20260504230825 | 23 | 105 | 1.6 | 1.6 | 0.00 | 0.03 | 0.03 | 41 | 1011.5 |
| 20260504230323 | 24 | 89 | 0.0 | 1.6 | 0.00 | 0.03 | 0.03 | 40 | 1011.4 |
| 20260504225822 | 24 | 122 | 0.0 | 1.6 | 0.00 | 0.03 | 0.03 | 40 | 1011.6 |
| 20260504225317 | 25 | 98 | 0.0 | 1.6 | 0.00 | 0.03 | 0.03 | 40 | 1011.5 |
| 20260504224815 | 25 | 176 | 4.8 | 4.8 | 0.00 | 0.03 | 0.03 | 37 | 1011.6 |
| 20260504224312 | 25 | 100 | 1.6 | 1.6 | 0.00 | 0.03 | 0.03 | 37 | 1011.7 |
| 20260504223809 | 25 | 100 | 1.6 | 1.6 | 0.00 | 0.03 | 0.03 | 37 | 1011.6 |
| 20260504223304 | 25 | 111 | 3.2 | 3.2 | 0.00 | 0.03 | 0.03 | 37 | 1011.7 |
| 20260504222801 | 26 | 211 | 1.6 | 3.2 | 0.00 | 0.03 | 0.03 | 37 | 1011.7 |
| 20260504222258 | 26 | 117 | 1.6 | 3.2 | 0.00 | 0.03 | 0.03 | 37 | 1011.7 |
| 20260504221756 | 26 | 119 | 0.0 | 1.6 | 0.00 | 0.03 | 0.03 | 36 | 1011.4 |
| 20260504221253 | 26 | 227 | 4.8 | 4.8 | 0.00 | 0.03 | 0.03 | 35 | 1011.5 |
| 20260504220749 | 26 | 174 | 3.2 | 3.2 | 0.00 | 0.03 | 0.03 | 36 | 1011.7 |
| 20260504220246 | 26 | 130 | 3.2 | 3.2 | 0.00 | 0.03 | 0.03 | 35 | 1011.7 |
| 20260504215744 | 26 | 102 | 1.6 | 1.6 | 0.00 | 0.03 | 0.03 | 36 | 1011.5 |
| 20260504215240 | 27 | 325 | 4.8 | 8.0 | 0.00 | 0.03 | 0.03 | 34 | 1011.8 |
| 20260504214736 | 26 | 216 | 0.0 | 1.6 | 0.00 | 0.03 | 0.03 | 34 | 1011.8 |
| 20260504214232 | 26 | 88 | 3.2 | 3.2 | 0.00 | 0.03 | 0.03 | 35 | 1011.7 |
| 20260504213729 | 26 | 85 | 1.6 | 1.6 | 0.00 | 0.03 | 0.03 | 36 | 1011.6 |
| 20260504213226 | 27 | 81 | 1.6 | 3.2 | 0.00 | 0.03 | 0.03 | 35 | 1011.6 |
| 20260504212723 | 27 | 191 | 3.2 | 4.8 | 0.00 | 0.03 | 0.03 | 35 | 1011.6 |
| 20260504212219 | 26 | 121 | 1.6 | 1.6 | 0.00 | 0.03 | 0.03 | 35 | 1011.9 |
| 20260504211717 | 26 | 146 | 1.6 | 3.2 | 0.00 | 0.03 | 0.03 | 35 | 1011.7 |
| 20260504211213 | 27 | 81 | 3.2 | 3.2 | 0.00 | 0.03 | 0.03 | 35 | 1011.5 |
| 20260504210711 | 26 | 202 | 1.6 | 3.2 | 0.00 | 0.03 | 0.03 | 35 | 1011.9 |
| 20260504210207 | 27 | 112 | 3.2 | 3.2 | 0.00 | 0.03 | 0.03 | 35 | 1011.7 |
| 20260504205704 | 27 | 256 | 3.2 | 3.2 | 0.00 | 0.03 | 0.03 | 36 | 1011.6 |
| 20260504205202 | 26 | 105 | 3.2 | 4.8 | 0.00 | 0.03 | 0.03 | 36 | 1011.7 |
| 20260504204700 | 27 | 62 | 4.8 | 8.0 | 0.00 | 0.03 | 0.03 | 34 | 1011.6 |
| 20260504204159 | 27 | 306 | 1.6 | 3.2 | 0.00 | 0.03 | 0.03 | 35 | 1011.6 |
| 20260504203657 | 27 | 127 | 1.6 | 1.6 | 0.00 | 0.03 | 0.03 | 35 | 1011.7 |
| 20260504203154 | 27 | 229 | 4.8 | 8.0 | 0.00 | 0.03 | 0.03 | 35 | 1011.7 |
| 20260504202649 | 26 | 141 | 3.2 | 3.2 | 0.00 | 0.03 | 0.03 | 36 | 1011.9 |
| 20260504202146 | 26 | 149 | 3.2 | 3.2 | 0.00 | 0.03 | 0.03 | 35 | 1011.9 |
| 20260504201643 | 27 | 47 | 3.2 | 4.8 | 0.00 | 0.03 | 0.03 | 36 | 1011.8 |
| 20260504201141 | 27 | 144 | 1.6 | 3.2 | 0.00 | 0.03 | 0.03 | 37 | 1012.0 |
| 20260504200637 | 27 | 103 | 1.6 | 1.6 | 0.00 | 0.03 | 0.03 | 37 | 1012.0 |
| 20260504200134 | 27 | 143 | 1.6 | 1.6 | 0.00 | 0.03 | 0.03 | 37 | 1012.0 |
| 20260504195630 | 26 | 89 | 3.2 | 3.2 | 0.00 | 0.03 | 0.03 | 37 | 1012.0 |
| 20260504195126 | 26 | 304 | 1.6 | 1.6 | 0.00 | 0.03 | 0.03 | 37 | 1012.1 |
| 20260504194623 | 26 | 309 | 1.6 | 3.2 | 0.00 | 0.03 | 0.03 | 39 | 1012.5 |
| 20260504194119 | 25 | 271 | 3.2 | 4.8 | 0.00 | 0.03 | 0.03 | 38 | 1012.4 |
| 20260504193615 | 25 | 234 | 1.6 | 3.2 | 0.00 | 0.03 | 0.03 | 39 | 1012.4 |
| 20260504193114 | 25 | 275 | 6.4 | 8.0 | 0.00 | 0.03 | 0.03 | 38 | 1012.6 |
| 20260504192612 | 25 | 93 | 1.6 | 1.6 | 0.00 | 0.03 | 0.03 | 37 | 1012.6 |
| 20260504192110 | 25 | 147 | 3.2 | 3.2 | 0.00 | 0.03 | 0.03 | 37 | 1012.7 |
| 20260504191608 | 26 | 255 | 4.8 | 4.8 | 0.00 | 0.03 | 0.03 | 37 | 1012.7 |
| 20260504191104 | 26 | 82 | 1.6 | 3.2 | 0.00 | 0.03 | 0.03 | 35 | 1012.9 |
| 20260504190600 | 25 | 285 | 4.8 | 4.8 | 0.00 | 0.03 | 0.03 | 33 | 1012.9 |
| 20260504190056 | 25 | 124 | 3.2 | 4.8 | 0.00 | 0.03 | 0.03 | 32 | 1012.9 |
| 20260504185553 | 25 | 116 | 6.4 | 11.3 | 0.00 | 0.03 | 0.03 | 35 | 1013.0 |
| 20260504185050 | 26 | 219 | 4.8 | 4.8 | 0.00 | 0.03 | 0.03 | 36 | 1013.0 |
| 20260504184545 | 25 | 225 | 4.8 | 8.0 | 0.00 | 0.03 | 0.03 | 38 | 1013.1 |
| 20260504184041 | 25 | 339 | 4.8 | 8.0 | 0.00 | 0.03 | 0.03 | 36 | 1013.1 |
| 20260504183538 | 25 | 93 | 1.6 | 3.2 | 0.00 | 0.03 | 0.03 | 40 | 1013.4 |
| 20260504183036 | 25 | 60 | 1.6 | 3.2 | 0.00 | 0.03 | 0.03 | 40 | 1013.4 |
| 20260504182533 | 24 | 129 | 0.0 | 0.0 | 0.00 | 0.03 | 0.03 | 41 | 1013.2 |
| 20260504182030 | 24 | 228 | 4.8 | 8.0 | 0.13 | 0.03 | 0.03 | 39 | 1013.5 |
| 20260504181527 | 25 | 70 | 3.2 | 4.8 | 0.13 | 0.03 | 0.03 | 40 | 1013.5 |
| 20260504181026 | 24 | 122 | 3.2 | 3.2 | 0.00 | 0.00 | 0.00 | 42 | 1013.7 |
| 20260504180524 | 23 | 331 | 3.2 | 3.2 | 0.00 | 0.00 | 0.00 | 41 | 1013.7 |
| 20260504180023 | 23 | 90 | 1.6 | 1.6 | 0.00 | 0.00 | 0.00 | 43 | 1013.6 |
| 20260504175519 | 23 | 99 | 0.0 | 1.6 | 0.00 | 0.00 | 0.00 | 41 | 1013.7 |
| 20260504175016 | 23 | 343 | 4.8 | 4.8 | 0.00 | 0.00 | 0.00 | 41 | 1013.6 |
| 20260504174514 | 25 | 317 | 6.4 | 9.7 | 0.00 | 0.00 | 0.00 | 38 | 1013.8 |
| 20260504174011 | 25 | 269 | 3.2 | 3.2 | 0.00 | 0.00 | 0.00 | 39 | 1013.8 |
| 20260504173508 | 25 | 183 | 3.2 | 3.2 | 0.00 | 0.00 | 0.00 | 39 | 1013.7 |
| 20260504173005 | 24 | 134 | 0.0 | 0.0 | 0.00 | 0.00 | 0.00 | 40 | 1013.7 |
| 20260504172501 | 24 | 116 | 0.0 | 1.6 | 0.00 | 0.00 | 0.00 | 39 | 1014.0 |
| 20260504171957 | 24 | 229 | 4.8 | 4.8 | 0.00 | 0.00 | 0.00 | 38 | 1014.2 |
| 20260504171454 | 24 | 103 | 0.0 | 1.6 | 0.00 | 0.00 | 0.00 | 40 | 1013.9 |
| 20260504170951 | 23 | 118 | 1.6 | 1.6 | 0.00 | 0.00 | 0.00 | 42 | 1014.1 |
| 20260504170447 | 23 | 357 | 4.8 | 4.8 | 0.00 | 0.00 | 0.00 | 40 | 1014.4 |
| 20260504160407 | 22 | 93 | 1.6 | 3.2 | 0.00 | 0.00 | 0.00 | 47 | 1015.1 |
| 20260504150831 | 20 | 149 | 4.8 | 8.0 | 0.00 | 0.00 | 0.00 | 51 | 1015.3 |
| 20260504150328 | 20 | 192 | 3.2 | 3.2 | 0.00 | 0.00 | 0.00 | 51 | 1015.3 |
| 20260504141258 | 18 | 130 | 1.6 | 1.6 | 0.00 | 0.00 | 0.00 | 59 | 1015.7 |
| 20260504140755 | 17 | 120 | 3.2 | 3.2 | 0.00 | 0.00 | 0.00 | 60 | 1015.3 |
| 20260504140250 | 17 | 102 | 3.2 | 3.2 | 0.00 | 0.00 | 0.00 | 60 | 1015.5 |
| 20260504130719 | 16 | 151 | 0.0 | 1.6 | 0.00 | 0.00 | 0.00 | 62 | 1015.8 |
| 20260504130215 | 16 | 60 | 1.6 | 1.6 | 0.00 | 0.00 | 0.00 | 63 | 1016.1 |
| 20260504120139 | 15 | 145 | 0.0 | 1.6 | 0.00 | 0.00 | 0.00 | 68 | 1016.2 |